Terminal Aerodrome Forecast
Issued by NWS Charleston, WV

Current Version | Previous Version | Graphics & Text | Print | Product List | Glossary On
Versions: 1 2 3 4 5 6 7 8 9 10 11 12 13 14 15 16 17 18 19 20 21 22
000
FTUS41 KRLX 092333
TAFHTS
TAF
KHTS 092333Z 1000/1024 24006KT P6SM OVC029
     FM100900 00000KT P6SM SCT035=

USA.gov is the U.S. government's official web portal to all federal, state and local government web resources and services.